Location: Dompnac
(44.5644°N, 4.1026°E)
Time: 19:01:28
(UTC+00:00)

USA 234 - Pass Details

Date: 26 January 2021
Orbit: 1100 x 1107 km, 123.0° (Epoch: 01 March)

Event Time Altitude Azimuth Distance (km) Brightness Sun altitude
Exits shadow 17:47:41 12° 54° (NE) 2,832 4.8 -11.4°
Maximum altitude 17:52:44 30° 359° (N) 1,875 4.4 -12.3°
Drops below altitude 10° 17:58:13 10° 301° (WNW) 2,967 6.2 -13.2°
Sets 18:01:01 0° 292° (WNW) 3,926 7.1 -13.7°
